Regional Weather Roundup
Issued by NWS

Home | Current Version | Previous Version | Graphics & Text | Print | Product List | Glossary On
Versions: 1 2 3 4 5 6 7 8 9 10 11 12 13 14 15 16 17 18 19 20 21 22 23 24 25 26 27
000
ASUS45 KCYS 300010
RWRWY

WYOMING REGIONAL WEATHER ROUNDUP
NATIONAL WEATHER SERVICE CHEYENNE WY
600 PM MDT WED MAR 29 2017

NOTE:  "FAIR" INDICATES FEW OR NO CLOUDS BELOW 12,000 FEET
WITH NO SIGNIFICANT WEATHER AND/OR OBSTRUCTIONS TO VISIBILITY.

WYZ001-300100-
YELLOWSTONE NATIONAL PARK

CITY           SKY/WX    TMP DP  RH WIND       PRES   REMARKS
LK YELLOWSTONE   N/A     33  28  81 VRB6      30.10F WCI  28
6HR MIN TEMP:  33; 6HR MAX TEMP:  37;

W YELLOWSTONE  NOT AVBL

$$
WYZ002>013-054>058-071-098>099-300100-
NORTHERN WYOMING

CITY           SKY/WX    TMP DP  RH WIND       PRES   REMARKS
JACKSON        CLOUDY    45  30  57 MISG      30.07F
CODY           PTSUNNY   56  27  32 W21G30    29.92S
GREYBULL       FAIR      60  27  28 S8        29.88F
6HR MIN TEMP:  52; 6HR MAX TEMP:  60;

WORLAND        FAIR      59  33  37 SE6       29.89F
6HR MIN TEMP:  51; 6HR MAX TEMP:  59;

SHERIDAN       FAIR      60  28  29 SE5       29.87F
6HR MIN TEMP:  54; 6HR MAX TEMP:  61;

BUFFALO        FAIR      58  28  32 E8        29.90F
6HR MIN TEMP:  55; 6HR MAX TEMP:  60;

GILLETTE       FAIR      57  23  26 E5        29.91F
6HR MIN TEMP:  54; 6HR MAX TEMP:  60;

HULETT         FAIR      57  28  33 CALM      29.93F
NEWCASTLE      FAIR      57  23  26 W13       29.93F

$$
WYZ014>020-022>026-101>103-300100-
CENTRAL WYOMING

CITY           SKY/WX    TMP DP  RH WIND       PRES   REMARKS
BIG PINEY      FAIR      50  26  39 N13       30.07F
6HR MIN TEMP:  42; 6HR MAX TEMP:  53;

PINEDALE       CLOUDY    45  23  42 MISG      30.09S
DUBOIS         CLOUDY    46  27  46 NW20G31   30.01S
LANDER         FAIR      57  30  35 CALM      29.92F
6HR MIN TEMP:  49; 6HR MAX TEMP:  58;

RIVERTON       FAIR      57  26  30 S7        29.92F
6HR MIN TEMP:  45; 6HR MAX TEMP:  58;

CASPER         FAIR      57  26  30 W12G20    29.93F
6HR MIN TEMP:  50; 6HR MAX TEMP:  58;

DOUGLAS        FAIR      56  25  30 W12       29.94F
6HR MIN TEMP:  53; 6HR MAX TEMP:  60;


$$
WYZ021-027>030-104>119-300100-
SOUTHERN WYOMING

CITY           SKY/WX    TMP DP  RH WIND       PRES   REMARKS
EVANSTON       CLOUDY    48  26  42 W16       30.12F
6HR MIN TEMP:  41; 6HR MAX TEMP:  52;

KEMMERER         N/A     45  28  53 W14G21    30.10F
FORT BRIDGER   FAIR      54  29  38 W20       30.12F
ROCK SPRINGS   FAIR      52  29  41 W20G29    30.04F
6HR MIN TEMP:  40; 6HR MAX TEMP:  52;

DIXON            N/A     53  21  28 W12       30.07F
RAWLINS        FAIR      51  24  34 W14G22    30.02F
6HR MIN TEMP:  38; 6HR MAX TEMP:  53;

SARATOGA       FAIR      50  23  34 NW13G26   30.04F
LARAMIE        FAIR      48  23  37 NW20G28   29.99F
6HR MIN TEMP:  40; 6HR MAX TEMP:  50;

CHEYENNE       FAIR      52  23  32 NW20G28   29.97F
6HR MIN TEMP:  45; 6HR MAX TEMP:  53;

TORRINGTON     FAIR      61  27  27 N9        29.92F
6HR MIN TEMP:  51; 6HR MAX TEMP:  61;

PINE BLUFFS    FAIR      54  28  37 N16G23    29.97S

$$




USA.gov is the U.S. government's official web portal to all federal, state and local government web resources and services.